Regional Weather Roundup
Issued by NWS

Home | Current Version | Previous Version | Text Only | Print | Product List | Glossary On
Versions: 1 2 3 4 5 6 7 8 9 10 11 12 13 14 15 16 17 18 19 20 21 22 23 24 25 26 27 28 29 30 31 32 33 34 35 36 37 38 39 40 41 42 43 44 45 46 47 48 49 50
000
ASUS43 KMKX 031311
RWRWI

WISCONSIN REGIONAL WEATHER ROUNDUP
NATIONAL WEATHER SERVICE MILWAUKEE/SULLIVAN WI
800 AM CDT MON AUG 03 2015

NOTE: "FAIR" INDICATES FEW OR NO CLOUDS BELOW 12,000 FEET WITH NO
SIGNIFICANT WEATHER AND/OR OBSTRUCTIONS TO VISIBILITY.

WIZ001-002-006>008-014>016-023>028-031400-
NORTHWEST WISCONSIN

CITY           SKY/WX    TMP DP  RH WIND       PRES   REMARKS
SUPERIOR ARPT  SUNNY     62  51  66 NW13      29.81S
ASHLAND        CLOUDY    59  50  72 W8        29.79R
HAYWARD        CLOUDY    59  47  64 VRB6      29.84R
SIREN          MOSUNNY   61  49  65 NW8       29.86
CUMBERLAND     CLOUDY    59  46  63 W9        29.86R
RICE LAKE      PTSUNNY   58  52  79 CALM      29.87R
CHETEK         MOSUNNY   62  50  64 W8        29.85R
LADYSMITH      CLOUDY    60  50  70 W7        29.85S
EAU CLAIRE     SUNNY     61  51  70 W8        29.85R
MENOMONIE      SUNNY     63  52  66 W8        29.86S
NEW RICHMOND   SUNNY     60  53  78 W6        29.88R
OSCEOLA        SUNNY     60  58  94 W5        29.91R
$$

WIZ003>005-009-010-017-018-031400-
NORTH CENTRAL WISCONSIN

CITY           SKY/WX    TMP DP  RH WIND       PRES   REMARKS
MANITOWISH WTR CLOUDY    57  51  80 W8        29.79S
ARBOR VITAE    SUNNY     59  52  75 W7        29.79S
WOODRUFF       SUNNY     59  52  75 W7        29.79S
RHINELANDER    SUNNY     59  51  75 W10       29.81R
EAGLE RIVER    CLOUDY    59  49  69 W6        29.79R
LAND O LAKES   CLOUDY    59  50  73 CALM      29.79S
PHILLIPS       SUNNY     56  49  77 W7        29.82R
TOMAHAWK       SUNNY     56  50  80 W9        29.82S
MEDFORD        SUNNY     58  50  73 W7        29.84R
MERRILL        NOT AVBL
$$

WIZ029-030-035-036-043>047-031400-
CENTRAL WISCONSIN

CITY           SKY/WX    TMP DP  RH WIND       PRES   REMARKS
WAUSAU         SUNNY     60  50  69 NW9       29.81R
MOSINEE        SUNNY     61  50  67 W10       29.84R
MARSHFIELD     SUNNY     61  50  67 NW8       29.84S
STEVENS POINT  SUNNY     59  49  68 W8        29.84R
WAUPACA        SUNNY     65  53  65 W9        29.82S
WAUTOMA        SUNNY     65  50  58 NW9       29.84R
WISC RAPIDS    SUNNY     62  49  62 NW8       29.85R
CAMP DOUGLAS   NOT AVBL
$$

WIZ011>013-019>022-031-037>040-048>050-031400-
NORTHEAST WISCONSIN

CITY           SKY/WX    TMP DP  RH WIND       PRES   REMARKS
ANTIGO         MOSUNNY   57  52  84 W7        29.81S
SHAWANO        SUNNY     62  55  78 W7        29.80R
OCONTO         MOSUNNY   60  58  93 W7        29.77S
STURGEON BAY   PTSUNNY   63  52  67 NW7       29.79S
GREEN BAY      SUNNY     63  57  81 W9        29.79R
MANITOWOC      SUNNY     65  56  72 MISG      29.80R
APPLETON       MOSUNNY   61  54  77 W10       29.81R
CLINTONVILLE   SUNNY     61  52  72 W8        29.80S
OSHKOSH        SUNNY     63  54  72 W8        29.81R
$$

WIZ032>034-041-042-053>061-031400-
SOUTHWEST WISCONSIN

CITY           SKY/WX    TMP DP  RH WIND       PRES   REMARKS
LA CROSSE      SUNNY     67  55  65 S5        29.88R
SPARTA         SUNNY     63  51  65 W3        29.87S
VIROQUA        SUNNY     62  56  78 W5        29.90R
BOSCOBEL       SUNNY     64  58  80 CALM      29.89R
PRAIRIE DU CHI SUNNY     65  56  72 NW3       29.89S
PLATTEVILLE    SUNNY     65  57  74 W3        29.90R
$$

WIZ056-057-062-063-064-067-068-031400-
SOUTH CENTRAL WISCONSIN

CITY           SKY/WX    TMP DP  RH WIND       PRES   REMARKS
REEDSBURG      SUNNY     65  51  59 W8        29.86S
BARABOO/DELLS  SUNNY     65  48  55 W6        29.86S
LONE ROCK      SUNNY     65  54  67 W7        29.89R
MINERAL POINT  SUNNY     64  54  68 NW3       29.89S
MADISON        SUNNY     67  53  61 NW3       29.85S
MIDDLETON      SUNNY     66  54  63 W6        29.87R
WATERTOWN      SUNNY     65  58  80 W5        29.84S
MONROE         SUNNY     66  52  59 NW7       29.88R
JANESVILLE     SUNNY     68  55  64 NW7       29.86R
$$

WIZ051-052-058>065-066-070>072-031400-
SOUTHEAST WISCONSIN

CITY           SKY/WX    TMP DP  RH WIND       PRES   REMARKS
MILWAUKEE      MOSUNNY   69  53  56 NW9       29.83R
WAUKESHA       NOT AVBL
MILWAUKEE/TIMM SUNNY     66  54  63 NW8       29.83S
RACINE         SUNNY     67  58  72 NW9       29.84R
BURLINGTON     SUNNY     65  57  73 NW9       29.84S
KENOSHA        SUNNY     67  59  75 NW9       29.84R
FOND DU LAC    SUNNY     64  55  72 W12       29.82R
SHEBOYGAN      SUNNY     66  59  78 W7        29.81R
WEST BEND      SUNNY     64  54  68 W7        29.83S
JUNEAU         SUNNY     64  55  73 W7        29.85S
$$

LSZ147-162-031400-
LAKE SUPERIOR

STATION/POSITION TIME  TEMP    WIND        PRES    WAVE
                       AIR SEA DIR/SP/G            HT/PER
                 (UTC) (F)     (DEG/KT/KT) (MB)    (FT/S)
W MID LAKE BUOY  1250   58 55  270/ 14/ 16 1006.3R   1/ 3
DEVILS ISLAND    1300   58     250/ 17/ 21 1007.8R
PORT WING        1200   59     230/  6/  9 1008.8S
SAXON HARBOR     1240   61                 1007.8R
$$

LMZ867-665-643>646-031400-
LAKE MICHIGAN

STATION/POSITION TIME  TEMP    WIND        PRES    WAVE
                       AIR SEA DIR/SP/G            HT/PER
                 (UTC) (F)     (DEG/KT/KT) (MB)    (FT/S)
CHAMBERS ISLAND  1200   62     270/  4/ 10 1007.5R
S GREEN BAY BUOY 1300   61 66  270/ 10/ 10 1009.6
N MID LAKE BUOY  1250   64 68  300/ 12/ 16 1006.5R   2/ 3
NORTHPORT PIER   1200   65     300/ 11/ 15 1007.1R
SISTER BAY       1248   67     330/ 18/ 20   N/A
ALGOMA LAKESHORE 1212           CALM  /  3   N/A
KEWAUNEE LAKESHO 1200   60     300/  5/  7 1007.7R
SHEBOYGAN LAKESH 1300   67     290/ 13/ 14 1009.2R
PORT WASHINGTON  1200   66     290/  6/  9 1009.8R
ATWATER BUOY     1300   65 65  280/ 10/ 12 1011.2R
MILWAUKEE LAKESH 1200   67     300/  9/ 11   N/A
KENOSHA   LAKESH 1300   68     310/ 11/ 14 1009.8R
$$

TC  - TEMPERATURE IN CELSIUS
VSB - VISIBILITY IN STATUTE MILES
WCI - WIND CHILL INDEX
HX  - HEAT INDEX




USA.gov is the U.S. government's official web portal to all federal, state and local government web resources and services.